Regional Weather Roundup
Issued by NWS

Home | Current Version | Previous Version | Graphics & Text | Print | Product List | Glossary On
Versions: 1 2 3 4 5 6 7 8 9 10 11 12 13 14 15 16 17 18 19 20 21 22 23 24 25 26 27 28 29 30 31 32 33 34 35 36 37 38 39 40 41 42 43 44 45 46 47 48 49 50
000
ASUS43 KMPX 201401
RWRMN
WEATHER ROUNDUP FOR MINNESOTA
NATIONAL WEATHER SERVICE TWIN CITIES/CHANHASSEN MN
800 AM CST THU NOV 20 2014


NOTE: "FAIR" INDICATES FEW OR NO CLOUDS BELOW 12,000 FEET WITH NO
SIGNIFICANT WEATHER AND/OR OBSTRUCTIONS TO VISIBILITY. N/A MEANS
CURRENT SKY AND/OR WEATHER CONDITIONS ARE NOT AVAILABLE.

MNZ060>063-068>070-201500-
   Twin Cities Metro

CITY           SKY/WX    TMP DP  RH WIND       PRES   REMARKS
TWIN CITIES    CLEAR      9  -2  61 W12       30.09R WCI  -6
ST PAUL        CLEAR     10  -1  61 W12       30.10R WCI  -5
CRYSTAL        CLEAR     11  -3  53 NW13      30.08R WCI  -4
BLAINE         CLEAR     10   0  61 W13       30.06R WCI  -5
LAKEVILLE      CLEAR      7   1  78 W10       30.08R WCI  -8
EDEN PRAIRIE   CLEAR      5   1  83 W5        30.09R WCI  -4
SOUTH ST PAUL  CLEAR     12  -1  57 NW13      30.08R WCI  -3
LAKE ELMO      FAIR      10   0  61 NW13      30.07R WCI  -5
$$
MNZ001>005-007-008-013>017-022>024-027-028-201500-
   Northwest Minnesota

CITY           SKY/WX    TMP DP  RH WIND       PRES   REMARKS
BEMIDJI        FAIR      -2  -6  82 W9        30.00R WCI -18
HALLOCK        CLEAR     -2  -9  71 NW5       30.09R WCI -12
ROSEAU         CLEAR     -2  -8  78 W9        30.04R WCI -18
WARROAD        CLEAR     -2  -8  78 W7        30.02R WCI -16
THIEF RVR FALL CLEAR     -2  -6  84 NW7       30.06R WCI -16
CROOKSTON      PTCLDY    -2  -8  78 NW7       30.11R WCI -16
FOSSTON        PTCLDY   -11 -17  77 W3        30.06R
DETROIT LAKES  PTCLDY     3   0  85 NW8       30.06R WCI -10
PARK RAPIDS    CLEAR      0  -5  79 NW8       30.01R WCI -14
MAHNOMEN       FAIR      -5  -8  86 W7        30.06R WCI -19
$$
MNZ006-009>011-018-025>026-201500-
   North Central Minnesota

CITY           SKY/WX    TMP DP  RH WIND       PRES   REMARKS
BAUDETTE       CLOUDY     3  -3  76 NW18      29.97R WCI -17
FLAG ISLAND    MOCLDY     0  -4  85 NW13      29.99R WCI -18
INTL FALLS     CLEAR      0  -5  79 NW7       29.94R WCI -13
WASKISH        CLEAR      1  -2  85 W13       30.00R WCI -16
BIG FORK       CLEAR      1  -4  78 W3        29.95R
LONGVILLE      CLEAR      1  -2  85 W6        30.00R WCI -10
GRAND RAPIDS   CLEAR      1  -2  85 NW18G26   29.93R WCI -19
CRANE LAKE     CLOUDY     1  -2  85 N7        29.93R HAZE    WCI -11
ORR            FAIR       0  -6  78 NW9       29.87R WCI -16
COOK           CLEAR      0  -4  85 W10       29.90R WCI -17
WALKER         FAIR      -1  -5  80 W8        30.00R WCI -15
$$
MNZ012-019>021-037-201500-
   Northeast Minnesota

CITY           SKY/WX    TMP DP  RH WIND       PRES   REMARKS
DULUTH         PTCLDY     3  -3  76 W12       29.89R WCI -13
ELY            LGT SNOW   3   0  85 N3        29.86R VSB 3/4
HIBBING        CLOUDY     2  -4  76 NW15G23   29.91R WCI -17
EVELETH        PTCLDY     3  -2  78 NW12      29.91R WCI -13
DULUTH HARBOR  CLEAR      9   1  72 W14       29.99R WCI  -8
TWO HARBORS    CLEAR      7   0  72 W7        29.88R WCI  -5
SILVER BAY     CLEAR      7   0  72 CALM      29.87R HAZE
GRAND MARAIS     N/A      5  -1  76 CALM      29.90R
G MARAIS ARPRT MOCLDY     0  -8  71 NW8       29.75R WCI -15
$$
MNZ029>031-032-039>041-046>048-054>057-064-201500-
   West Central Minnesota

CITY           SKY/WX    TMP DP  RH WIND       PRES   REMARKS
FERGUS FALLS   PTCLDY     1  -2  85 NW5       30.13R WCI  -8
WHEATON        PTCLDY     1  -2  85 W5        30.14R WCI  -8
MORRIS         PTCLDY    -2  -6  84 W7        30.10R WCI -16
ALEXANDRIA     CLEAR      4  -1  80 NW8       30.06R WCI  -9
ELBOW LAKE     FLURRIES  -1  -3  88 NW5       30.09R WCI -11
WADENA         CLEAR      0  -6  78 W5        30.04R WCI -10
GLENWOOD       FAIR       0  -6  78 W8        30.07R WCI -15
APPLETON       PTCLDY     0  -2  92 W6        30.13R WCI -12
BENSON         PTCLDY    -6  -9  84 NW6       30.10R WCI -18
ORTONVILLE     PTCLDY     3   0  85 W5        30.12R WCI  -6
MADISON        PTCLDY     7   0  72 W7        30.14R WCI  -5
WILLMAR        FAIR      -2  -8  78 W6        30.11R WCI -14
$$
MNZ033>034-036-042>043-049>051-058-059-201500-
   Central Minnesota

CITY           SKY/WX    TMP DP  RH WIND       PRES   REMARKS
ST CLOUD       CLEAR      6  -5  60 NW10      30.07R WCI  -9
SAUK CENTRE    FAIR      -2  -6  84 W6        30.07R WCI -14
PAYNESVILLE    CLEAR     -8 -10  89 SW5       30.09R WCI -19
AITKIN         CLEAR      7  -2  66 W3        29.98R
PINE RIVER     CLEAR      1  -2  85 W6        30.05R WCI -10
BRAINERD       CLEAR      4  -3  73 NW10      30.02R WCI -11
STAPLES        CLEAR      1  -4  78 W8        30.04R WCI -12
LONG PRAIRIE   FAIR       5  -4  66 W5        30.05R WCI  -4
LITTLE FALLS   CLEAR      5  -4  66 W5        30.06R WCI  -4
LITCHFIELD     CLEAR      3   1  92 SW5       30.10R WCI  -6
BUFFALO        CLEAR      6  -2  67 W6        30.10R WCI  -4
MAPLE LAKE     CLEAR     10   0  62 NW9       30.09R WCI  -2
$$
MNZ037-044-045-052-053-201500-
   East Central Minnesota

CITY           SKY/WX    TMP DP  RH WIND       PRES   REMARKS
PRINCETON      CLEAR      5  -4  66 CALM      30.06R
MORA             N/A    N/A N/A N/A MISG        N/A
CAMBRIDGE      CLEAR      7  -2  66 W6        30.04R WCI  -3
RUSH CITY      CLEAR      4  -3  74 W5        30.04R WCI  -6
MOOSE LAKE     CLEAR      3  -2  78 CALM      29.96R
HINCKLEY       FAIR       5   0  78 W6        30.01R WCI  -6
CLOQUET        CLEAR      1  -2  85 W10       29.93R WCI -14
MCGREGOR       CLEAR      5   0  78 W7        29.99R WCI  -7
$$
MNZ071>073-080-081-089-090-097-098-201500-
   Southwest Minnesota

CITY           SKY/WX    TMP DP  RH WIND       PRES   REMARKS
MONTEVIDEO     PTCLDY     5   1  85 NW6       30.14R WCI  -6
GRANITE FALLS  PTCLDY     1  -3  84 W10       30.15R WCI -15
CANBY          PTCLDY     7   2  82 W10       30.14R WCI  -8
MARSHALL       CLEAR      5   0  78 W12       30.11R WCI -11
REDWOOD FALLS  CLEAR      6   1  80 W10       30.13R WCI  -9
OLIVIA         PTCLDY     1  -2  85 W8        30.12R WCI -12
PIPESTONE      PTCLDY     0  -4  85 CALM      30.10R
WINDOM           N/A      1  -2  85 W7        30.11R WCI -11
WORTHINGTON    PTCLDY     3   3 100 W10       30.11R WCI -12
JACKSON        PTCLDY     5   1  85 W8        30.11R WCI  -8
TRACY          PTCLDY     7   2  80 W6        30.12R WCI  -3
SLAYTON        PTCLDY     3   0  88 CALM      30.11R
$$
MNZ065>067-074>077-082>085-091>093-201500-
   South Central Minnesota

CITY           SKY/WX    TMP DP  RH WIND       PRES   REMARKS
MANKATO        CLEAR      9   1  72 W9        30.10R WCI  -5
NEW ULM        CLEAR      3   0  85 W7        30.12R WCI  -9
ST JAMES       CLEAR      7   1  78 W7        30.13R WCI  -5
FAIRMONT       CLEAR      7   1  78 W8        30.12R WCI  -6
GLENCOE        CLEAR      6   3  88 W5        30.10R WCI  -3
FARIBAULT      CLEAR      9   3  78 W7        30.09R WCI  -3
OWATONNA       CLEAR      3   0  85 W6        30.09R WCI  -8
WASECA         CLEAR      3  -4  72 W6        30.11R WCI  -8
ALBERT LEA     CLEAR      5   1  85 W5        30.08R WCI  -4
$$
MNZ078>079-086>088-094>096-201500-
   Southeast Minnesota

CITY           SKY/WX    TMP DP  RH WIND       PRES   REMARKS
ROCHESTER      CLEAR      6   2  83 W14       30.05R WCI -11
RED WING         N/A     10   1  67 W8        30.06R WCI  -1
STANTON        CLEAR      8   2  76 W8        30.07R WCI  -4
DODGE CENTER   CLEAR      9   3  78 W10       30.05R WCI  -6
WINONA         CLEAR     14   5  67 NW14G21   30.07R WCI  -1
AUSTIN         CLEAR      9   3  78 W7        30.08R WCI  -3
PRESTON        FAIR      10   2  72 NW13G18   30.05R WCI  -6
$$
ABBREVIATIONS USED IN REMARKS
   TC - TEMPERATURES IN CELSIUS
  WCI - WIND CHILL INDEX
   HX - HEAT INDEX
  VSB - VISIBILITY
$$


USA.gov is the U.S. government's official web portal to all federal, state and local government web resources and services.